FENGYUN 1C DEB

Satellite information

Favourite Embed

Satellite Type and Status

DEBRISIN ORBIT

Key statistics

Satellite FENGYUN 1C DEB at a glance.

Uptime

9615

Days in orbit

Revolutions

≈ 14.0

Per day

Orbit

SSO

Sun Synchronous Orbit

Inclination

99.1

Latest

Satellite identification and parameters

Extended collection of information and parameters for FENGYUN 1C DEB.

Object identification

Identified? True

Debris? True

Object name: FENGYUN 1C DEB

International designator: 1999-025EEU

Object number (NORAD): 37060

Object ID (CCSDS): 37060

Country: PEOPLES REPUBLIC OF CHINA (PRC)

Current information (Y/N): Y

RCS size: SMALL

Orbital parameters

Period: 102.823 minutes

Inclination: 99.1102 deg

SMA: 7270.324 km

Apoapsis: 949.671 km

Periapsis: 834.706 km

RAAN: 296.31 deg

Eccentricy: 0.0079065

Argument of periapsis: 288.3526 deg

Mean anomaly: 70.9051 deg

Mean motion: 14.00464673 rev/day

Mean motion (dot): 0.00000294 rev/day2

B* drag term: 0.00022296449 1/REarth

Two-line elements (TLE)

Creation date: Aug. 26, 2025, 10:27 p.m.

Reference frame: TEME

Reference center: EARTH

Epoch: Aug. 26, 2025, 10:03 a.m. UTC

TLE line 0: 0 FENGYUN 1C DEB

TLE line 1: 1 37060U 99025EEU 25238.41913031 .00000294 00000-0 22296-3 0 9992

TLE line 2: 2 37060 99.1102 296.3100 0079065 288.3526 70.9051 14.00464673611906

Live tracking on map

Real-time ground track for satellite FENGYUN 1C DEB.

In-orbit conjunctions

A list of the most updated potential collisions computed for object FENGYUN 1C DEB.

Target Orbit TCA Probability of collision Miss distance Type
SL-14 DEB LEO 2025-03-11 06:00:34 0.0001028089 65.0 (m) DEBRIS
COSMOS 1275 DEB LEO 2024-08-09 17:24:12 0.0001104022 156.0 (m) DEBRIS

Associated space launch

Chinese polar orbiting meteorological satellite

FENGYUN 1C DEB was lifted into orbit during the mission ‘Long March 4B | Feng Yun 1C’, on board a Long March 4B space rocket.

The launch took place on May 10, 1999, 1:33 a.m. from Launch Complex 7.

For more information about the launch, click the button.

Launch to space Long March 4B | Feng Yun 1C
Long March 4B | Feng Yun 1C

Agency: N/A

Status: Launch Successful

Launch date: May 10, 1999, 1:33 a.m. UTC

Rocket: Long March 4B

Launch pad: Launch Complex 7

Location: Taiyuan Satellite Launch Center, People's Republic of China

...

Latest news about this satellite

There are no fresh news available about this satellite. Check back as we update our databases every day.


Newsletter sign-up

Weekly statistics, charts and insights to help you stay on top of the space industry.